Regional Weather Roundup
Issued by NWS Goodland, KS

Home | Current Version | Previous Version | Text Only | Print | Product List | Glossary Off
Versions: 1 2 3 4 5 6 7 8 9 10 11 12 13 14 15 16 17 18 19 20 21 22 23 24 25 26 27 28 29 30 31 32 33 34 35 36 37 38 39 40 41 42 43 44 45 46 47 48 49 50

000
ASUS43 KGLD 071808
RWRGLD

GOODLAND FORECAST AREA HOURLY WEATHER ROUNDUP
NATIONAL WEATHER SERVICE GOODLAND KS
1100 AM MST WED DEC 07 2016

...OFFICIAL OBSERVATIONS...

CITY           SKY/WX    TMP DP  RH WIND       PRES   REMARKS
GOODLAND KS    LGT SNOW  15   9  76 N15       30.26S WCI   0
HILL CITY KS   CLOUDY    20  13  74 NE14      30.35S WCI   7
IMPERIAL NEB   CLOUDY    13   7  77 N14       30.32R HAZE    WCI  -2
MCCOOK NEB     LGT SNOW  17  10  74 N10       30.34F WCI   5
AKRON CO       LGT SNOW  11   5  77 N12       30.22S WCI  -3
BURLINGTON CO  LGT SNOW  15   7  70 N16       30.23R WCI  -1
LIMON CO       FLURRIES  13   9  84 NE13      30.15S WCI  -2
$$

...UNOFFICIAL OBSERVATIONS...

CITY           SKY/WX    TMP DP  RH WIND       PRES   REMARKS
COLBY KS       LGT SNOW  19  16  86 N13       30.30S WCI   7
LENORA KS        N/A     18  32 100 MISG        N/A
NORTON KS      LGT SNOW  18  10  73 N10       30.33F WCI   6
SHARON SPRINGS   N/A     15  12  88 NE14        N/A  WCI   0
TRIBUNE KS     CLOUDY    18  14  86 N16       30.25R WCI   3
TRENTON NEB      N/A     15  32 100 N6          N/A
KIT CARSON CO    N/A     16  10  76 MISG        N/A
YUMA CO        FLURRIES  12   5  73 N8        30.26S
$$




USA.gov is the U.S. government's official web portal to all federal, state and local government web resources and services.